FNG300 EFRO-EFIV

Flight info

Callsign FNG300
Flight time 2h 44m
Altitude 2500
Route HEINU RAITO EFKS LIIKASENVAARA SALLA AINIJAERVI IVALO
Aircraft B412/L-SBDFGRTUZ/EB2

Departure

Time 2026-04-21 07:06
Airport Rovaniemi Airport (EFRO)

Arrival

Time 2026-04-21 09:50
Airport Ivalo Airport (EFIV)
Time Latitude Longitude Altitude Speed Heading
2026-04-21 07:00 66.55160 25.81345 613 ft 0 kts 307°
2026-04-21 07:04 66.55161 25.81356 635 ft 1 kts 302°
2026-04-21 07:04 66.55157 25.81377 639 ft 2 kts 302°
2026-04-21 07:04 66.55150 25.81410 677 ft 3 kts 303°
2026-04-21 07:05 66.55135 25.81464 744 ft 4 kts 304°
2026-04-21 07:05 66.55119 25.81519 850 ft 1 kts 306°
2026-04-21 07:05 66.55121 25.81655 1013 ft 28 kts 79°
2026-04-21 07:05 66.55076 25.82700 1046 ft 85 kts 90°
2026-04-21 07:06 66.54888 25.84193 1206 ft 96 kts 113°
2026-04-21 07:06 66.54604 25.85784 1325 ft 108 kts 110°
2026-04-21 07:06 66.54253 25.87554 1402 ft 116 kts 109°
2026-04-21 07:06 66.53901 25.89523 1346 ft 130 kts 109°
2026-04-21 07:07 66.53544 25.91651 1329 ft 135 kts 109°
2026-04-21 07:07 66.53160 25.93820 1326 ft 137 kts 110°
2026-04-21 07:07 66.52768 25.95997 1325 ft 140 kts 110°
2026-04-21 07:07 66.52378 25.98223 1326 ft 138 kts 110°
2026-04-21 07:08 66.52006 26.00410 1331 ft 136 kts 109°
2026-04-21 07:08 66.51633 26.02625 1330 ft 139 kts 109°
2026-04-21 07:08 66.51256 26.04891 1327 ft 142 kts 109°
2026-04-21 07:08 66.50875 26.07201 1327 ft 144 kts 108°
2026-04-21 07:09 66.50497 26.09501 1332 ft 143 kts 109°
2026-04-21 07:09 66.50120 26.11796 1330 ft 142 kts 108°
2026-04-21 07:09 66.49743 26.14083 1331 ft 142 kts 109°
2026-04-21 07:09 66.49364 26.16366 1369 ft 140 kts 108°
2026-04-21 07:10 66.48997 26.18563 1461 ft 134 kts 107°
2026-04-21 07:10 66.48638 26.20689 1558 ft 132 kts 108°
2026-04-21 07:10 66.48287 26.22768 1665 ft 131 kts 107°
2026-04-21 07:10 66.47930 26.24885 1753 ft 132 kts 107°
2026-04-21 07:11 66.47572 26.27010 1869 ft 134 kts 107°
2026-04-21 07:11 66.47209 26.29170 1965 ft 136 kts 106°
2026-04-21 07:11 66.46844 26.31341 2057 ft 134 kts 106°
2026-04-21 07:11 66.46481 26.33484 2151 ft 133 kts 107°
2026-04-21 07:12 66.46118 26.35618 2250 ft 135 kts 107°
2026-04-21 07:12 66.45748 26.37799 2343 ft 137 kts 107°
2026-04-21 07:12 66.45378 26.39961 2437 ft 134 kts 108°
2026-04-21 07:12 66.45011 26.42096 2529 ft 133 kts 108°
2026-04-21 07:13 66.44627 26.44282 2520 ft 140 kts 108°
2026-04-21 07:13 66.44227 26.46535 2521 ft 144 kts 108°
2026-04-21 07:13 66.43816 26.48854 2515 ft 146 kts 108°
2026-04-21 07:13 66.43404 26.51179 2515 ft 147 kts 108°
2026-04-21 07:14 66.42989 26.53531 2509 ft 148 kts 108°
2026-04-21 07:14 66.42578 26.55870 2511 ft 146 kts 108°
2026-04-21 07:14 66.42174 26.58166 2511 ft 147 kts 108°
2026-04-21 07:14 66.41766 26.60494 2513 ft 146 kts 108°
2026-04-21 07:15 66.41352 26.62865 2507 ft 149 kts 108°
2026-04-21 07:15 66.40939 26.65225 2512 ft 149 kts 108°
2026-04-21 07:15 66.40529 26.67564 2510 ft 146 kts 108°
2026-04-21 07:15 66.40121 26.69886 2516 ft 148 kts 108°
2026-04-21 07:16 66.39702 26.72285 2515 ft 153 kts 108°
2026-04-21 07:16 66.39280 26.74700 2514 ft 152 kts 107°
2026-04-21 07:16 66.38854 26.77136 2508 ft 153 kts 108°
2026-04-21 07:16 66.38430 26.79538 2510 ft 150 kts 108°
2026-04-21 07:17 66.38012 26.81897 2508 ft 147 kts 107°
2026-04-21 07:17 66.37601 26.84213 2510 ft 146 kts 107°
2026-04-21 07:17 66.37189 26.86543 2508 ft 147 kts 107°
2026-04-21 07:17 66.36777 26.88882 2511 ft 148 kts 107°
2026-04-21 07:18 66.36363 26.91231 2503 ft 146 kts 107°
2026-04-21 07:18 66.35958 26.93512 2508 ft 143 kts 108°
2026-04-21 07:18 66.35557 26.95762 2516 ft 144 kts 108°
2026-04-21 07:18 66.35150 26.98060 2509 ft 145 kts 107°
2026-04-21 07:19 66.34753 27.00293 2513 ft 141 kts 107°
2026-04-21 07:19 66.34354 27.02536 2515 ft 142 kts 108°
2026-04-21 07:19 66.33953 27.04799 2514 ft 144 kts 108°
2026-04-21 07:19 66.33546 27.07112 2509 ft 146 kts 108°
2026-04-21 07:20 66.33137 27.09422 2508 ft 146 kts 108°
2026-04-21 07:20 66.32723 27.11753 2510 ft 148 kts 108°
2026-04-21 07:20 66.32309 27.14068 2508 ft 145 kts 108°
2026-04-21 07:20 66.31895 27.16378 2508 ft 147 kts 107°
2026-04-21 07:21 66.31473 27.18740 2505 ft 151 kts 107°
2026-04-21 07:21 66.31047 27.21119 2505 ft 150 kts 108°
2026-04-21 07:21 66.30616 27.23533 2508 ft 155 kts 109°
2026-04-21 07:21 66.30179 27.25978 2505 ft 154 kts 109°
2026-04-21 07:22 66.29743 27.28400 2496 ft 152 kts 109°
2026-04-21 07:22 66.29316 27.30744 2501 ft 147 kts 109°
2026-04-21 07:22 66.28896 27.33059 2498 ft 146 kts 108°
2026-04-21 07:22 66.28481 27.35334 2502 ft 143 kts 108°
2026-04-21 07:23 66.28072 27.37587 2511 ft 144 kts 108°
2026-04-21 07:23 66.27656 27.39889 2511 ft 149 kts 108°
2026-04-21 07:23 66.27239 27.42207 2506 ft 148 kts 108°
2026-04-21 07:23 66.26817 27.44550 2505 ft 149 kts 109°
2026-04-21 07:24 66.26391 27.46899 2506 ft 151 kts 108°
2026-04-21 07:24 66.25960 27.49280 2501 ft 151 kts 108°
2026-04-21 07:24 66.25532 27.51635 2499 ft 149 kts 108°
2026-04-21 07:24 66.25105 27.53975 2501 ft 149 kts 108°
2026-04-21 07:25 66.24677 27.56320 2499 ft 149 kts 108°
2026-04-21 07:25 66.24253 27.58642 2502 ft 148 kts 108°
2026-04-21 07:25 66.23829 27.60960 2498 ft 147 kts 109°
2026-04-21 07:25 66.23406 27.63262 2503 ft 147 kts 109°
2026-04-21 07:26 66.22982 27.65573 2498 ft 146 kts 109°
2026-04-21 07:26 66.22562 27.67854 2500 ft 145 kts 109°
2026-04-21 07:26 66.22145 27.70114 2502 ft 144 kts 108°
2026-04-21 07:26 66.21732 27.72361 2504 ft 147 kts 108°
2026-04-21 07:27 66.21304 27.74708 2500 ft 150 kts 108°
2026-04-21 07:27 66.20873 27.77064 2497 ft 150 kts 108°
2026-04-21 07:27 66.20438 27.79434 2497 ft 152 kts 109°
2026-04-21 07:27 66.19998 27.81829 2498 ft 154 kts 109°
2026-04-21 07:28 66.19560 27.84197 2495 ft 150 kts 109°
2026-04-21 07:28 66.19124 27.86538 2497 ft 151 kts 109°
2026-04-21 07:28 66.18685 27.88903 2495 ft 151 kts 109°
2026-04-21 07:28 66.18248 27.91245 2493 ft 148 kts 110°
2026-04-21 07:29 66.17822 27.93538 2503 ft 149 kts 111°
2026-04-21 07:29 66.17385 27.95882 2502 ft 151 kts 111°
2026-04-21 07:29 66.16947 27.98238 2494 ft 151 kts 111°
2026-04-21 07:29 66.16505 28.00609 2494 ft 152 kts 111°
2026-04-21 07:30 66.16063 28.02976 2495 ft 151 kts 110°
2026-04-21 07:30 66.15619 28.05353 2493 ft 153 kts 111°
2026-04-21 07:30 66.15172 28.07721 2493 ft 151 kts 111°
2026-04-21 07:30 66.14722 28.10060 2491 ft 150 kts 111°
2026-04-21 07:31 66.14274 28.12384 2495 ft 151 kts 112°
2026-04-21 07:31 66.13826 28.14723 2491 ft 150 kts 111°
2026-04-21 07:31 66.13383 28.17063 2491 ft 150 kts 111°
2026-04-21 07:31 66.12945 28.19393 2494 ft 150 kts 111°
2026-04-21 07:32 66.12507 28.21732 2495 ft 154 kts 110°
2026-04-21 07:32 66.12059 28.24133 2493 ft 154 kts 111°
2026-04-21 07:32 66.11610 28.26519 2491 ft 153 kts 111°
2026-04-21 07:32 66.11161 28.28881 2492 ft 152 kts 111°
2026-04-21 07:33 66.10699 28.31250 2488 ft 153 kts 112°
2026-04-21 07:33 66.10234 28.33615 2488 ft 152 kts 112°
2026-04-21 07:33 66.09780 28.35940 2488 ft 149 kts 111°
2026-04-21 07:33 66.09338 28.38232 2484 ft 147 kts 111°
2026-04-21 07:34 66.08902 28.40515 2484 ft 148 kts 112°
2026-04-21 07:34 66.08464 28.42825 2486 ft 149 kts 112°
2026-04-21 07:34 66.08025 28.45141 2484 ft 152 kts 112°
2026-04-21 07:34 66.07577 28.47494 2484 ft 152 kts 111°
2026-04-21 07:35 66.07132 28.49821 2483 ft 149 kts 111°
2026-04-21 07:35 66.06690 28.52127 2483 ft 149 kts 111°
2026-04-21 07:35 66.06249 28.54427 2483 ft 148 kts 112°
2026-04-21 07:35 66.05809 28.56713 2485 ft 147 kts 112°
2026-04-21 07:36 66.05369 28.59002 2436 ft 151 kts 112°
2026-04-21 07:36 66.04911 28.61393 2302 ft 157 kts 112°
2026-04-21 07:36 66.04443 28.63850 2149 ft 160 kts 112°
2026-04-21 07:36 66.03996 28.66375 1992 ft 161 kts 109°
2026-04-21 07:37 66.03619 28.68875 1984 ft 154 kts 107°
2026-04-21 07:37 66.03263 28.71379 1978 ft 152 kts 105°
2026-04-21 07:37 66.02926 28.73791 1985 ft 151 kts 105°
2026-04-21 07:37 66.02595 28.76232 1981 ft 150 kts 105°
2026-04-21 07:38 66.02276 28.78672 1979 ft 148 kts 105°
2026-04-21 07:38 66.01964 28.81079 1982 ft 147 kts 105°
2026-04-21 07:38 66.01631 28.83470 1987 ft 149 kts 105°
2026-04-21 07:38 66.01284 28.85882 1984 ft 150 kts 106°
2026-04-21 07:39 66.00932 28.88303 1976 ft 150 kts 107°
2026-04-21 07:39 66.00586 28.90694 1972 ft 147 kts 106°
2026-04-21 07:39 66.00241 28.93063 1980 ft 148 kts 107°
2026-04-21 07:39 65.99907 28.95426 1976 ft 146 kts 105°
2026-04-21 07:40 65.99684 28.96986 1984 ft 147 kts 106°
2026-04-21 07:40 65.99228 29.00182 1971 ft 147 kts 106°
2026-04-21 07:40 65.99003 29.01753 1971 ft 147 kts 106°
2026-04-21 07:40 65.98666 29.04099 1973 ft 144 kts 106°
2026-04-21 07:41 65.98221 29.07167 1949 ft 145 kts 107°
2026-04-21 07:41 65.97884 29.09511 1950 ft 146 kts 106°
2026-04-21 07:41 65.97545 29.11844 1944 ft 145 kts 105°
2026-04-21 07:41 65.97194 29.14196 1866 ft 150 kts 107°
2026-04-21 07:42 65.96946 29.15803 1769 ft 154 kts 109°
2026-04-21 07:42 65.96544 29.18261 1624 ft 156 kts 109°
2026-04-21 07:42 65.96152 29.20646 1533 ft 143 kts 108°
2026-04-21 07:42 65.95919 29.22869 1469 ft 127 kts 91°
2026-04-21 07:43 65.95998 29.24852 1492 ft 108 kts 66°
2026-04-21 07:43 65.96336 29.26291 1557 ft 88 kts 37°
2026-04-21 07:43 65.96827 29.27030 1520 ft 81 kts
2026-04-21 07:43 65.97379 29.27151 1420 ft 80 kts 342°
2026-04-21 07:44 65.97884 29.26668 1373 ft 77 kts 317°
2026-04-21 07:44 65.98272 29.25786 1310 ft 76 kts 305°
2026-04-21 07:44 65.98614 29.24827 1242 ft 72 kts 304°
2026-04-21 07:44 65.98916 29.24016 1179 ft 55 kts 304°
2026-04-21 07:45 65.99115 29.23465 1110 ft 33 kts 302°
2026-04-21 07:45 65.99248 29.23177 1012 ft 19 kts 302°
2026-04-21 07:45 65.99322 29.23004 965 ft 13 kts 300°
2026-04-21 07:45 65.99387 29.22809 938 ft 16 kts 304°
2026-04-21 07:46 65.99455 29.22725 889 ft 6 kts 45°
2026-04-21 07:46 65.99455 29.22812 890 ft 2 kts 52°
2026-04-21 07:46 65.99457 29.22830 879 ft 0 kts 46°
2026-04-21 07:46 65.99458 29.22831 873 ft 0 kts 45°
2026-04-21 07:49 65.99457 29.22829 878 ft 0 kts 33°
2026-04-21 07:49 65.99454 29.22829 894 ft 1 kts 294°
2026-04-21 07:49 65.99452 29.22830 937 ft 5 kts 307°
2026-04-21 07:49 65.99407 29.22967 1143 ft 7 kts 305°
2026-04-21 07:50 65.99429 29.22923 1281 ft 20 kts 306°
2026-04-21 07:50 65.99629 29.22413 1297 ft 65 kts 312°
2026-04-21 07:50 66.00150 29.22047 1307 ft 90 kts 351°
2026-04-21 07:50 66.00799 29.22482 1405 ft 106 kts 18°
2026-04-21 07:51 66.01410 29.23710 1450 ft 121 kts 38°
2026-04-21 07:51 66.02014 29.25264 1455 ft 129 kts 40°
2026-04-21 07:51 66.02611 29.26891 1528 ft 127 kts 41°
2026-04-21 07:51 66.03201 29.28531 1618 ft 128 kts 41°
2026-04-21 07:52 66.03786 29.30184 1701 ft 129 kts 41°
2026-04-21 07:52 66.04368 29.31868 1777 ft 128 kts 43°
2026-04-21 07:52 66.04945 29.33498 1869 ft 125 kts 43°
2026-04-21 07:52 66.05519 29.35097 1944 ft 124 kts 42°
2026-04-21 07:53 66.06090 29.36687 2027 ft 125 kts 41°
2026-04-21 07:53 66.06676 29.38352 2021 ft 131 kts 41°
2026-04-21 07:53 66.07271 29.40086 2033 ft 134 kts 42°
2026-04-21 07:53 66.07878 29.41821 2024 ft 133 kts 41°
2026-04-21 07:54 66.08492 29.43560 2026 ft 135 kts 41°
2026-04-21 07:54 66.09101 29.45289 2039 ft 135 kts 41°
2026-04-21 07:54 66.09699 29.47010 2171 ft 130 kts 41°
2026-04-21 07:54 66.10278 29.48714 2292 ft 129 kts 41°
2026-04-21 07:55 66.10839 29.50415 2412 ft 125 kts 42°
2026-04-21 07:55 66.11381 29.52081 2514 ft 126 kts 41°
2026-04-21 07:55 66.11950 29.53820 2500 ft 132 kts 41°
2026-04-21 07:55 66.12534 29.55602 2498 ft 134 kts 41°
2026-04-21 07:56 66.13127 29.57410 2497 ft 136 kts 42°
2026-04-21 07:56 66.13605 29.58864 2498 ft 136 kts 41°
2026-04-21 07:56 66.14207 29.60685 2493 ft 137 kts 41°
2026-04-21 07:56 66.14812 29.62529 2496 ft 139 kts 41°
2026-04-21 07:57 66.15428 29.64387 2497 ft 139 kts 38°
2026-04-21 07:57 66.16218 29.65575 2490 ft 129 kts 11°
2026-04-21 07:57 66.17087 29.66107 2493 ft 129 kts
2026-04-21 07:57 66.17965 29.66410 2492 ft 127 kts 359°
2026-04-21 07:58 66.18844 29.66665 2492 ft 127 kts 359°
2026-04-21 07:58 66.19724 29.66929 2493 ft 128 kts 360°
2026-04-21 07:58 66.20603 29.67120 2497 ft 126 kts 354°
2026-04-21 07:58 66.21478 29.67019 2492 ft 126 kts 348°
2026-04-21 07:59 66.22338 29.66782 2489 ft 122 kts 346°
2026-04-21 07:59 66.23183 29.66536 2498 ft 123 kts 346°
2026-04-21 07:59 66.24037 29.66159 2490 ft 125 kts 341°
2026-04-21 07:59 66.24879 29.65655 2492 ft 124 kts 339°
2026-04-21 08:00 66.25712 29.65047 2490 ft 125 kts 337°
2026-04-21 08:00 66.26524 29.64409 2488 ft 123 kts 337°
2026-04-21 08:00 66.27343 29.63763 2491 ft 124 kts 337°
2026-04-21 08:00 66.28170 29.63135 2490 ft 123 kts 339°
2026-04-21 08:01 66.28998 29.62603 2493 ft 123 kts 341°
2026-04-21 08:01 66.29835 29.62117 2494 ft 124 kts 341°
2026-04-21 08:01 66.30679 29.61642 2488 ft 124 kts 341°
2026-04-21 08:02 66.32378 29.60683 2486 ft 126 kts 340°
2026-04-21 08:02 66.33211 29.60101 2482 ft 122 kts 338°
2026-04-21 08:02 66.34019 29.59493 2483 ft 121 kts 338°
2026-04-21 08:02 66.34819 29.58880 2486 ft 120 kts 338°
2026-04-21 08:03 66.35623 29.58264 2485 ft 121 kts 337°
2026-04-21 08:03 66.36420 29.57656 2485 ft 119 kts 338°
2026-04-21 08:03 66.37212 29.57054 2490 ft 120 kts 338°
2026-04-21 08:03 66.37999 29.56455 2488 ft 121 kts 338°
2026-04-21 08:04 66.38817 29.55832 2488 ft 121 kts 338°
2026-04-21 08:04 66.39619 29.55218 2488 ft 121 kts 337°
2026-04-21 08:04 66.40407 29.54546 2489 ft 120 kts 335°
2026-04-21 08:04 66.41189 29.53818 2496 ft 120 kts 335°
2026-04-21 08:05 66.41966 29.53072 2489 ft 122 kts 334°
2026-04-21 08:05 66.42767 29.52292 2487 ft 125 kts 334°
2026-04-21 08:05 66.43576 29.51502 2484 ft 125 kts 334°
2026-04-21 08:05 66.44383 29.50717 2484 ft 124 kts 334°
2026-04-21 08:06 66.45194 29.49934 2482 ft 125 kts 334°
2026-04-21 08:06 66.45998 29.49161 2486 ft 124 kts 335°
2026-04-21 08:06 66.46802 29.48392 2486 ft 124 kts 335°
2026-04-21 08:06 66.47612 29.47615 2484 ft 125 kts 335°
2026-04-21 08:07 66.48424 29.46830 2485 ft 125 kts 335°
2026-04-21 08:07 66.49236 29.46041 2484 ft 125 kts 334°
2026-04-21 08:07 66.50048 29.45252 2477 ft 125 kts 335°
2026-04-21 08:07 66.50862 29.44458 2477 ft 126 kts 335°
2026-04-21 08:08 66.51678 29.43660 2473 ft 125 kts 335°
2026-04-21 08:08 66.52467 29.42892 2479 ft 123 kts 335°
2026-04-21 08:08 66.53273 29.42103 2474 ft 124 kts 335°
2026-04-21 08:08 66.54083 29.41296 2477 ft 125 kts 334°
2026-04-21 08:09 66.54887 29.40490 2476 ft 124 kts 335°
2026-04-21 08:09 66.55688 29.39691 2477 ft 124 kts 334°
2026-04-21 08:09 66.56500 29.38888 2478 ft 125 kts 335°
2026-04-21 08:09 66.57299 29.38052 2479 ft 124 kts 332°
2026-04-21 08:10 66.58070 29.37070 2481 ft 125 kts 329°
2026-04-21 08:10 66.58837 29.36021 2478 ft 125 kts 328°
2026-04-21 08:10 66.59594 29.34967 2481 ft 125 kts 328°
2026-04-21 08:10 66.60356 29.33911 2480 ft 125 kts 328°
2026-04-21 08:11 66.61116 29.32853 2482 ft 125 kts 327°
2026-04-21 08:11 66.61870 29.31751 2481 ft 126 kts 327°
2026-04-21 08:11 66.62618 29.30638 2478 ft 124 kts 326°
2026-04-21 08:11 66.63358 29.29538 2480 ft 126 kts 326°
2026-04-21 08:12 66.64126 29.28399 2479 ft 127 kts 326°
2026-04-21 08:12 66.64871 29.27264 2477 ft 127 kts 324°
2026-04-21 08:12 66.65598 29.26012 2478 ft 126 kts 322°
2026-04-21 08:12 66.66305 29.24732 2479 ft 125 kts 321°
2026-04-21 08:13 66.67012 29.23436 2479 ft 126 kts 321°
2026-04-21 08:13 66.67717 29.22144 2477 ft 125 kts 321°
2026-04-21 08:13 66.68423 29.20857 2477 ft 124 kts 321°
2026-04-21 08:13 66.69125 29.19579 2480 ft 125 kts 321°
2026-04-21 08:14 66.69825 29.18307 2479 ft 124 kts 321°
2026-04-21 08:14 66.70524 29.17043 2473 ft 123 kts 322°
2026-04-21 08:14 66.71221 29.15792 2477 ft 124 kts 323°
2026-04-21 08:14 66.71969 29.14712 2474 ft 123 kts 330°
2026-04-21 08:15 66.72733 29.13808 2480 ft 124 kts 332°
2026-04-21 08:15 66.73532 29.12887 2477 ft 127 kts 332°
2026-04-21 08:15 66.74334 29.11958 2474 ft 125 kts 332°
2026-04-21 08:15 66.75127 29.11040 2475 ft 125 kts 332°
2026-04-21 08:16 66.75920 29.10113 2474 ft 124 kts 331°
2026-04-21 08:16 66.76698 29.09198 2475 ft 123 kts 331°
2026-04-21 08:16 66.77469 29.08285 2476 ft 122 kts 331°
2026-04-21 08:16 66.78236 29.07376 2476 ft 122 kts 331°
2026-04-21 08:17 66.78999 29.06466 2473 ft 122 kts 331°
2026-04-21 08:17 66.79765 29.05549 2474 ft 122 kts 331°
2026-04-21 08:17 66.80540 29.04613 2471 ft 123 kts 330°
2026-04-21 08:17 66.81336 29.03815 2485 ft 125 kts 337°
2026-04-21 08:18 66.82180 29.03182 2483 ft 128 kts 340°
2026-04-21 08:18 66.83042 29.02598 2481 ft 128 kts 340°
2026-04-21 08:18 66.83893 29.02048 2480 ft 125 kts 341°
2026-04-21 08:18 66.84732 29.01512 2481 ft 124 kts 341°
2026-04-21 08:19 66.85573 29.00964 2486 ft 127 kts 340°
2026-04-21 08:19 66.86436 29.00376 2482 ft 129 kts 341°
2026-04-21 08:19 66.87305 28.99749 2477 ft 129 kts 340°
2026-04-21 08:19 66.88169 28.99185 2484 ft 130 kts 345°
2026-04-21 08:20 66.89069 28.98932 2482 ft 129 kts 353°
2026-04-21 08:20 66.89947 28.99001 2478 ft 127 kts 358°
2026-04-21 08:20 66.90824 28.99209 2468 ft 125 kts
2026-04-21 08:20 66.91691 28.99439 2473 ft 126 kts 360°
2026-04-21 08:21 66.92560 28.99646 2475 ft 124 kts 357°
2026-04-21 08:22 66.94166 28.94352 2479 ft 97 kts 285°
2026-04-21 08:22 66.94344 28.92736 2472 ft 92 kts 307°
2026-04-21 08:22 66.94866 28.92049 2470 ft 85 kts 354°
2026-04-21 08:22 66.95393 28.92719 2479 ft 91 kts 36°
2026-04-21 08:23 66.95572 28.94351 2477 ft 109 kts 94°
2026-04-21 08:23 66.95134 28.96051 2293 ft 124 kts 142°
2026-04-21 08:23 66.94355 28.97081 2092 ft 129 kts 159°
2026-04-21 08:23 66.93495 28.97865 1928 ft 133 kts 162°
2026-04-21 08:24 66.92608 28.98623 1779 ft 131 kts 166°
2026-04-21 08:24 66.91800 28.98363 1793 ft 110 kts 220°
2026-04-21 08:24 66.91500 28.96889 1799 ft 89 kts 279°
2026-04-21 08:24 66.91841 28.95795 1801 ft 81 kts 339°
2026-04-21 08:25 66.92404 28.95971 1803 ft 85 kts 15°
2026-04-21 08:25 66.92919 28.96608 1796 ft 78 kts 12°
2026-04-21 08:25 66.93369 28.97103 1713 ft 66 kts
2026-04-21 08:25 66.93679 28.97478 1698 ft 28 kts 17°
2026-04-21 08:26 66.93738 28.97629 1334 ft 8 kts 25°
2026-04-21 08:26 66.93811 28.97788 1163 ft 14 kts 25°
2026-04-21 08:26 66.93891 28.97930 1062 ft 19 kts 25°
2026-04-21 08:26 66.93976 28.98075 911 ft 5 kts 28°
2026-04-21 08:27 66.93973 28.98091 902 ft 3 kts 17°
2026-04-21 08:27 66.93971 28.98121 769 ft 1 kts 13°
2026-04-21 08:27 66.93987 28.98123 725 ft 3 kts 15°
2026-04-21 08:27 66.93995 28.98116 695 ft 2 kts 15°
2026-04-21 08:28 66.94004 28.98124 674 ft 1 kts 16°
2026-04-21 08:28 66.94005 28.98125 670 ft 0 kts 14°
2026-04-21 08:28 66.94000 28.98122 724 ft 3 kts 14°
2026-04-21 08:29 66.93928 28.98070 869 ft 22 kts 12°
2026-04-21 08:29 66.93868 28.98042 1128 ft 7 kts 341°
2026-04-21 08:29 66.94014 28.97921 1166 ft 33 kts 335°
2026-04-21 08:29 66.94332 28.97703 1171 ft 63 kts 342°
2026-04-21 08:30 66.94855 28.97898 1107 ft 85 kts
2026-04-21 08:30 66.95431 28.98467 1244 ft 93 kts 20°
2026-04-21 08:30 66.96045 28.99228 1377 ft 103 kts 20°
2026-04-21 08:30 66.96704 29.00064 1517 ft 108 kts 19°
2026-04-21 08:31 66.97378 29.00903 1656 ft 107 kts 18°
2026-04-21 08:31 66.98045 29.01729 1806 ft 107 kts 18°
2026-04-21 08:31 66.98724 29.02563 1942 ft 108 kts 18°
2026-04-21 08:31 66.99403 29.03401 1992 ft 114 kts 18°
2026-04-21 08:32 66.99889 29.03975 1985 ft 118 kts 18°
2026-04-21 08:32 67.00648 29.04844 1981 ft 120 kts 17°
2026-04-21 08:32 67.01420 29.05717 1982 ft 123 kts 17°
2026-04-21 08:32 67.02205 29.06611 1978 ft 123 kts 17°
2026-04-21 08:33 67.02972 29.07586 1983 ft 124 kts 21°
2026-04-21 08:33 67.03722 29.08727 1974 ft 126 kts 24°
2026-04-21 08:33 67.04459 29.09907 1976 ft 124 kts 24°
2026-04-21 08:33 67.05193 29.11099 1982 ft 125 kts 24°
2026-04-21 08:34 67.05935 29.12300 1984 ft 127 kts 25°
2026-04-21 08:34 67.06692 29.13508 1980 ft 129 kts 24°
2026-04-21 08:34 67.07458 29.14727 1976 ft 128 kts 24°
2026-04-21 08:34 67.08211 29.15922 1976 ft 127 kts 23°
2026-04-21 08:35 67.08978 29.17039 1978 ft 127 kts 21°
2026-04-21 08:35 67.09759 29.18122 1980 ft 128 kts 20°
2026-04-21 08:35 67.10546 29.19197 1976 ft 127 kts 20°
2026-04-21 08:35 67.11311 29.20259 1979 ft 127 kts 21°
2026-04-21 08:36 67.12083 29.21336 1981 ft 126 kts 21°
2026-04-21 08:36 67.12850 29.22397 1977 ft 124 kts 21°
2026-04-21 08:36 67.13613 29.23459 1972 ft 125 kts 21°
2026-04-21 08:36 67.14374 29.24524 1973 ft 124 kts 21°
2026-04-21 08:37 67.15133 29.25588 1974 ft 125 kts 21°
2026-04-21 08:37 67.15898 29.26645 1968 ft 124 kts 21°
2026-04-21 08:37 67.16657 29.27697 1973 ft 123 kts 21°
2026-04-21 08:37 67.17407 29.28748 1973 ft 123 kts 21°
2026-04-21 08:38 67.18163 29.29809 1963 ft 124 kts 21°
2026-04-21 08:38 67.18928 29.30871 1968 ft 125 kts 21°
2026-04-21 08:38 67.19689 29.31928 1973 ft 125 kts 21°
2026-04-21 08:38 67.20457 29.32986 1973 ft 126 kts 21°
2026-04-21 08:39 67.21240 29.34061 1968 ft 128 kts 21°
2026-04-21 08:39 67.22023 29.35138 1961 ft 127 kts 21°
2026-04-21 08:39 67.22801 29.36208 1967 ft 125 kts 21°
2026-04-21 08:39 67.23565 29.37254 1967 ft 123 kts 21°
2026-04-21 08:40 67.24315 29.38284 1983 ft 124 kts 21°
2026-04-21 08:40 67.25084 29.39346 1975 ft 130 kts 21°
2026-04-21 08:40 67.25901 29.40478 1960 ft 132 kts 21°
2026-04-21 08:40 67.26707 29.41587 1962 ft 134 kts 21°
2026-04-21 08:41 67.27535 29.42705 1962 ft 133 kts 21°
2026-04-21 08:41 67.28349 29.43809 1960 ft 131 kts 21°
2026-04-21 08:41 67.29155 29.44915 1964 ft 131 kts 21°
2026-04-21 08:41 67.29956 29.46022 1965 ft 130 kts 22°
2026-04-21 08:42 67.30762 29.47112 1966 ft 131 kts 21°
2026-04-21 08:42 67.31574 29.48198 1963 ft 132 kts 21°
2026-04-21 08:42 67.32383 29.49349 1961 ft 132 kts 24°
2026-04-21 08:42 67.33157 29.50583 2004 ft 129 kts 25°
2026-04-21 08:43 67.33895 29.51821 2120 ft 124 kts 26°
2026-04-21 08:43 67.34601 29.53030 2242 ft 120 kts 26°
2026-04-21 08:43 67.35284 29.54263 2365 ft 119 kts 27°
2026-04-21 08:43 67.35949 29.55516 2490 ft 118 kts 27°
2026-04-21 08:44 67.36612 29.56800 2596 ft 120 kts 27°
2026-04-21 08:44 67.37310 29.58154 2578 ft 127 kts 28°
2026-04-21 08:44 67.38030 29.59534 2577 ft 130 kts 27°
2026-04-21 08:44 67.38763 29.60921 2579 ft 132 kts 27°
2026-04-21 08:45 67.39509 29.62327 2578 ft 133 kts 27°
2026-04-21 08:45 67.40258 29.63739 2574 ft 132 kts 27°
2026-04-21 08:45 67.40993 29.65147 2579 ft 131 kts 27°
2026-04-21 08:45 67.41726 29.66547 2576 ft 133 kts 27°
2026-04-21 08:46 67.42475 29.67973 2569 ft 132 kts 27°
2026-04-21 08:46 67.43209 29.69380 2576 ft 131 kts 27°
2026-04-21 08:46 67.43947 29.70796 2575 ft 132 kts 27°
2026-04-21 08:46 67.44681 29.72210 2576 ft 132 kts 27°
2026-04-21 08:47 67.45422 29.73634 2573 ft 131 kts 27°
2026-04-21 08:47 67.46148 29.75030 2572 ft 128 kts 28°
2026-04-21 08:47 67.46859 29.76398 2575 ft 126 kts 28°
2026-04-21 08:47 67.47577 29.77761 2587 ft 129 kts 27°
2026-04-21 08:48 67.48315 29.79171 2579 ft 134 kts 27°
2026-04-21 08:48 67.49073 29.80625 2570 ft 136 kts 27°
2026-04-21 08:48 67.49837 29.82106 2564 ft 136 kts 27°
2026-04-21 08:48 67.50586 29.83586 2569 ft 134 kts 28°
2026-04-21 08:49 67.51313 29.85020 2564 ft 132 kts 28°
2026-04-21 08:49 67.52056 29.86458 2572 ft 134 kts 26°
2026-04-21 08:49 67.52856 29.87642 2565 ft 131 kts 16°
2026-04-21 08:49 67.53692 29.88529 2565 ft 129 kts 12°
2026-04-21 08:50 67.54535 29.89323 2563 ft 128 kts 11°
2026-04-21 08:50 67.55379 29.90095 2563 ft 128 kts 11°
2026-04-21 08:50 67.56215 29.90872 2565 ft 127 kts 11°
2026-04-21 08:50 67.57044 29.91630 2566 ft 126 kts
2026-04-21 08:51 67.57886 29.92122 2567 ft 124 kts
2026-04-21 08:51 67.58737 29.92473 2566 ft 123 kts
2026-04-21 08:51 67.59587 29.92817 2560 ft 124 kts
2026-04-21 08:51 67.60438 29.93164 2554 ft 123 kts
2026-04-21 08:52 67.61276 29.93507 2554 ft 122 kts
2026-04-21 08:52 67.62120 29.93852 2557 ft 123 kts
2026-04-21 08:52 67.62961 29.94206 2554 ft 121 kts
2026-04-21 08:52 67.63792 29.94571 2557 ft 121 kts
2026-04-21 08:53 67.64614 29.94934 2562 ft 122 kts
2026-04-21 08:53 67.65464 29.95307 2562 ft 123 kts
2026-04-21 08:53 67.66296 29.95610 2562 ft 121 kts 355°
2026-04-21 08:53 67.67120 29.95316 2560 ft 119 kts 338°
2026-04-21 08:54 67.67860 29.94413 2557 ft 117 kts 324°
2026-04-21 08:54 67.68486 29.93089 2557 ft 115 kts 314°
2026-04-21 08:54 67.69020 29.91485 2562 ft 118 kts 308°
2026-04-21 08:54 67.69542 29.89780 2559 ft 121 kts 309°
2026-04-21 08:55 67.70086 29.88090 2560 ft 121 kts 310°
2026-04-21 08:55 67.70648 29.86442 2549 ft 120 kts 311°
2026-04-21 08:55 67.71214 29.84862 2557 ft 118 kts 313°
2026-04-21 08:55 67.71786 29.83320 2555 ft 116 kts 313°
2026-04-21 08:56 67.72357 29.81807 2559 ft 118 kts 314°
2026-04-21 08:56 67.72945 29.80270 2555 ft 120 kts 314°
2026-04-21 08:56 67.73539 29.78721 2557 ft 120 kts 314°
2026-04-21 08:56 67.74129 29.77183 2552 ft 117 kts 314°
2026-04-21 08:57 67.74707 29.75683 2567 ft 116 kts 315°
2026-04-21 08:57 67.75284 29.74182 2568 ft 118 kts 314°
2026-04-21 08:57 67.75866 29.72649 2563 ft 118 kts 313°
2026-04-21 08:57 67.76450 29.71097 2563 ft 120 kts 313°
2026-04-21 08:58 67.77033 29.69553 2553 ft 117 kts 313°
2026-04-21 08:58 67.77613 29.68036 2558 ft 118 kts 313°
2026-04-21 08:58 67.78196 29.66520 2559 ft 118 kts 313°
2026-04-21 08:58 67.78782 29.65043 2556 ft 115 kts 318°
2026-04-21 08:59 67.79468 29.63890 2559 ft 119 kts 329°
2026-04-21 08:59 67.80226 29.62969 2564 ft 120 kts 332°
2026-04-21 08:59 67.80986 29.62058 2549 ft 120 kts 330°
2026-04-21 08:59 67.81745 29.61071 2544 ft 120 kts 329°
2026-04-21 09:00 67.82465 29.60057 2549 ft 118 kts 328°
2026-04-21 09:00 67.83190 29.58997 2549 ft 119 kts 327°
2026-04-21 09:00 67.83913 29.57928 2557 ft 119 kts 327°
2026-04-21 09:00 67.84634 29.56857 2550 ft 118 kts 327°
2026-04-21 09:01 67.85354 29.55788 2552 ft 119 kts 327°
2026-04-21 09:01 67.86078 29.54741 2551 ft 119 kts 328°
2026-04-21 09:01 67.86825 29.53786 2547 ft 119 kts 330°
2026-04-21 09:01 67.87579 29.52873 2548 ft 118 kts 331°
2026-04-21 09:02 67.88337 29.51964 2545 ft 120 kts 331°
2026-04-21 09:02 67.89092 29.51035 2545 ft 119 kts 330°
2026-04-21 09:02 67.89840 29.50047 2553 ft 121 kts 329°
2026-04-21 09:03 67.91332 29.47998 2555 ft 123 kts 328°
2026-04-21 09:03 67.92091 29.46989 2556 ft 122 kts 329°
2026-04-21 09:03 67.92862 29.46031 2555 ft 123 kts 330°
2026-04-21 09:03 67.93644 29.45074 2553 ft 124 kts 330°
2026-04-21 09:04 67.94420 29.44138 2545 ft 121 kts 331°
2026-04-21 09:04 67.95185 29.43215 2552 ft 121 kts 330°
2026-04-21 09:04 67.95956 29.42284 2551 ft 122 kts 331°
2026-04-21 09:04 67.96723 29.41361 2551 ft 121 kts 331°
2026-04-21 09:05 67.97482 29.40460 2556 ft 119 kts 330°
2026-04-21 09:05 67.98239 29.39558 2559 ft 121 kts 331°
2026-04-21 09:05 67.99002 29.38637 2554 ft 120 kts 330°
2026-04-21 09:05 67.99769 29.37719 2558 ft 123 kts 331°
2026-04-21 09:06 68.00559 29.36754 2544 ft 125 kts 330°
2026-04-21 09:06 68.01353 29.35771 2541 ft 125 kts 330°
2026-04-21 09:06 68.02134 29.34806 2546 ft 124 kts 330°
2026-04-21 09:06 68.02905 29.33857 2547 ft 124 kts 330°
2026-04-21 09:07 68.03688 29.32893 2548 ft 125 kts 331°
2026-04-21 09:07 68.04457 29.31794 2541 ft 124 kts 323°
2026-04-21 09:07 68.05145 29.30396 2539 ft 125 kts 316°
2026-04-21 09:07 68.05775 29.28817 2541 ft 123 kts 313°
2026-04-21 09:08 68.06348 29.27127 2544 ft 122 kts 309°
2026-04-21 09:08 68.06846 29.25331 2545 ft 119 kts 303°
2026-04-21 09:08 68.07234 29.23353 2547 ft 122 kts 295°
2026-04-21 09:08 68.07557 29.21229 2547 ft 125 kts 294°
2026-04-21 09:09 68.07891 29.19150 2645 ft 119 kts 296°
2026-04-21 09:09 68.08227 29.17187 2771 ft 112 kts 296°
2026-04-21 09:09 68.08569 29.15325 2895 ft 111 kts 297°
2026-04-21 09:09 68.08906 29.13548 3019 ft 104 kts 298°
2026-04-21 09:10 68.09230 29.11810 3149 ft 104 kts 298°
2026-04-21 09:10 68.09543 29.10102 3267 ft 100 kts 298°
2026-04-21 09:10 68.09852 29.08428 3405 ft 103 kts 299°
2026-04-21 09:10 68.10155 29.06639 3505 ft 107 kts 296°
2026-04-21 09:11 68.10462 29.04727 3481 ft 114 kts 295°
2026-04-21 09:11 68.10780 29.02763 3487 ft 119 kts 296°
2026-04-21 09:11 68.11117 29.00684 3481 ft 123 kts 295°
2026-04-21 09:11 68.11467 28.98585 3483 ft 124 kts 295°
2026-04-21 09:12 68.11825 28.96506 3485 ft 123 kts 296°
2026-04-21 09:12 68.12181 28.94438 3480 ft 119 kts 296°
2026-04-21 09:12 68.12526 28.92455 3484 ft 116 kts 296°
2026-04-21 09:12 68.12876 28.90467 3488 ft 121 kts 297°
2026-04-21 09:13 68.13225 28.88425 3481 ft 119 kts 296°
2026-04-21 09:13 68.13561 28.86417 3486 ft 119 kts 296°
2026-04-21 09:13 68.13907 28.84389 3482 ft 118 kts 296°
2026-04-21 09:13 68.14246 28.82390 3484 ft 118 kts 296°
2026-04-21 09:14 68.14592 28.80366 3484 ft 120 kts 296°
2026-04-21 09:14 68.14942 28.78345 3488 ft 120 kts 296°
2026-04-21 09:14 68.15322 28.76316 3484 ft 122 kts 299°
2026-04-21 09:14 68.15716 28.74345 3476 ft 119 kts 300°
2026-04-21 09:15 68.16102 28.72422 3483 ft 116 kts 300°
2026-04-21 09:15 68.16485 28.70525 3476 ft 113 kts 300°
2026-04-21 09:15 68.16859 28.68694 3491 ft 114 kts 300°
2026-04-21 09:15 68.17243 28.66815 3487 ft 115 kts 300°
2026-04-21 09:16 68.17626 28.64915 3483 ft 115 kts 300°
2026-04-21 09:16 68.18045 28.63090 3481 ft 113 kts 308°
2026-04-21 09:16 68.18625 28.61602 3483 ft 117 kts 320°
2026-04-21 09:16 68.19312 28.60440 3486 ft 117 kts 329°
2026-04-21 09:17 68.20068 28.59552 3486 ft 120 kts 334°
2026-04-21 09:17 68.20867 28.58890 3482 ft 120 kts 340°
2026-04-21 09:17 68.21683 28.58409 3483 ft 120 kts 343°
2026-04-21 09:17 68.22496 28.57984 3485 ft 119 kts 343°
2026-04-21 09:18 68.23326 28.57514 3486 ft 124 kts 342°
2026-04-21 09:18 68.24169 28.57003 3483 ft 124 kts 341°
2026-04-21 09:18 68.24721 28.56655 3477 ft 120 kts 341°
2026-04-21 09:18 68.25760 28.56000 3486 ft 115 kts 341°
2026-04-21 09:19 68.26535 28.55485 3486 ft 115 kts 341°
2026-04-21 09:19 68.27330 28.54935 3487 ft 120 kts 341°
2026-04-21 09:19 68.27878 28.54578 3456 ft 120 kts 341°
2026-04-21 09:19 68.28693 28.54053 3346 ft 120 kts 342°
2026-04-21 09:20 68.29771 28.53329 3202 ft 122 kts 341°
2026-04-21 09:20 68.30322 28.52971 3128 ft 124 kts 342°
2026-04-21 09:20 68.31166 28.52489 3014 ft 124 kts 343°
2026-04-21 09:20 68.32034 28.52022 2903 ft 130 kts 343°
2026-04-21 09:21 68.32930 28.51549 2792 ft 131 kts 343°
2026-04-21 09:21 68.33820 28.51092 2682 ft 130 kts 343°
2026-04-21 09:21 68.34707 28.50661 2574 ft 130 kts 343°
2026-04-21 09:21 68.35606 28.50240 2469 ft 132 kts 343°
2026-04-21 09:22 68.36516 28.49796 2357 ft 134 kts 343°
2026-04-21 09:22 68.37436 28.49312 2246 ft 135 kts 342°
2026-04-21 09:22 68.38354 28.48810 2124 ft 131 kts 342°
2026-04-21 09:22 68.39214 28.48330 2017 ft 122 kts 342°
2026-04-21 09:23 68.40028 28.47861 1980 ft 116 kts 340°
2026-04-21 09:23 68.40785 28.47416 1978 ft 106 kts 340°
2026-04-21 09:23 68.41491 28.47015 1987 ft 103 kts 340°
2026-04-21 09:23 68.42180 28.46608 1986 ft 102 kts 340°
2026-04-21 09:24 68.42877 28.46175 1983 ft 102 kts 340°
2026-04-21 09:24 68.43567 28.45741 1987 ft 103 kts 340°
2026-04-21 09:24 68.44263 28.45273 1983 ft 104 kts 339°
2026-04-21 09:24 68.44962 28.44808 1981 ft 103 kts 340°
2026-04-21 09:25 68.45651 28.44362 1981 ft 101 kts 340°
2026-04-21 09:25 68.46333 28.43931 1981 ft 100 kts 340°
2026-04-21 09:25 68.47007 28.43520 1979 ft 98 kts 340°
2026-04-21 09:25 68.47665 28.43164 1979 ft 96 kts 340°
2026-04-21 09:26 68.48326 28.42765 1977 ft 98 kts 331°
2026-04-21 09:26 68.48776 28.41447 1881 ft 102 kts 287°
2026-04-21 09:26 68.48671 28.39473 1776 ft 113 kts 249°
2026-04-21 09:26 68.48187 28.37710 1673 ft 122 kts 225°
2026-04-21 09:27 68.47479 28.36442 1564 ft 124 kts 214°
2026-04-21 09:27 68.46674 28.35702 1443 ft 120 kts 184°
2026-04-21 09:27 68.45905 28.36426 1346 ft 119 kts 137°
2026-04-21 09:27 68.45592 28.38358 1239 ft 108 kts 81°
2026-04-21 09:28 68.45817 28.39991 1124 ft 79 kts 44°
2026-04-21 09:28 68.46086 28.41035 1013 ft 49 kts 31°
2026-04-21 09:28 68.46280 28.41428 984 ft 31 kts 18°
2026-04-21 09:28 68.46474 28.41814 1039 ft 39 kts 14°
2026-04-21 09:29 68.46783 28.42188 1036 ft 59 kts
2026-04-21 09:29 68.47083 28.42627 1233 ft 34 kts
2026-04-21 09:29 68.47269 28.42917 1269 ft 34 kts
2026-04-21 09:29 68.47501 28.43337 1303 ft 41 kts
2026-04-21 09:30 68.47699 28.43683 1422 ft 25 kts
2026-04-21 09:30 68.47792 28.43841 1430 ft 10 kts 28°
2026-04-21 09:30 68.47780 28.43955 1201 ft 5 kts 154°
2026-04-21 09:30 68.47727 28.43935 1309 ft 11 kts 147°
2026-04-21 09:31 68.47639 28.43843 1428 ft 15 kts 150°
2026-04-21 09:31 68.47498 28.43864 1410 ft 26 kts 152°
2026-04-21 09:31 68.47274 28.44045 1409 ft 44 kts 156°
2026-04-21 09:31 68.46958 28.44180 1454 ft 45 kts 181°
2026-04-21 09:32 68.46699 28.43924 1500 ft 34 kts 193°
2026-04-21 09:32 68.46540 28.43657 1444 ft 20 kts 195°
2026-04-21 09:32 68.46467 28.43384 1303 ft 17 kts 233°
2026-04-21 09:32 68.46471 28.43063 1188 ft 19 kts 264°
2026-04-21 09:33 68.46540 28.42718 1080 ft 25 kts 285°
2026-04-21 09:33 68.46717 28.42619 1023 ft 33 kts 37°
2026-04-21 09:33 68.46736 28.43080 1022 ft 19 kts 153°
2026-04-21 09:33 68.46593 28.43309 955 ft 35 kts 148°
2026-04-21 09:34 68.46401 28.43987 1064 ft 54 kts 89°
2026-04-21 09:34 68.46447 28.45105 1151 ft 67 kts 60°
2026-04-21 09:34 68.46690 28.45915 1350 ft 39 kts
2026-04-21 09:34 68.46903 28.45940 1479 ft 32 kts 341°
2026-04-21 09:35 68.47144 28.45721 1568 ft 32 kts 329°
2026-04-21 09:35 68.47287 28.45574 1760 ft 14 kts 345°
2026-04-21 09:35 68.47433 28.45448 1773 ft 39 kts 327°
2026-04-21 09:35 68.47816 28.44813 1448 ft 87 kts 310°
2026-04-21 09:36 68.48017 28.43183 1306 ft 99 kts 265°
2026-04-21 09:36 68.47891 28.41312 1265 ft 99 kts 259°
2026-04-21 09:36 68.47739 28.39494 1267 ft 98 kts 260°
2026-04-21 09:36 68.47607 28.37528 1279 ft 113 kts 263°
2026-04-21 09:37 68.47508 28.35341 1262 ft 119 kts 265°
2026-04-21 09:37 68.47380 28.33077 1260 ft 124 kts 262°
2026-04-21 09:37 68.47226 28.30754 1263 ft 125 kts 269°
2026-04-21 09:37 68.47367 28.28432 1268 ft 125 kts 289°
2026-04-21 09:38 68.47731 28.26280 1267 ft 125 kts 295°
2026-04-21 09:38 68.48051 28.24079 1265 ft 125 kts 284°
2026-04-21 09:38 68.48161 28.21713 1265 ft 126 kts 276°
2026-04-21 09:38 68.48278 28.19390 1269 ft 125 kts 281°
2026-04-21 09:39 68.48473 28.17077 1281 ft 127 kts 284°
2026-04-21 09:39 68.48781 28.14810 1280 ft 128 kts 295°
2026-04-21 09:39 68.49268 28.12867 1427 ft 116 kts 310°
2026-04-21 09:39 68.49850 28.11424 1534 ft 115 kts 316°
2026-04-21 09:40 68.50440 28.09925 1520 ft 118 kts 311°
2026-04-21 09:40 68.51002 28.08241 1512 ft 121 kts 308°
2026-04-21 09:40 68.51518 28.06423 1513 ft 122 kts 304°
2026-04-21 09:40 68.51982 28.04494 1515 ft 122 kts 299°
2026-04-21 09:41 68.52418 28.02529 1506 ft 120 kts 305°
2026-04-21 09:41 68.53075 28.01140 1504 ft 120 kts 326°
2026-04-21 09:41 68.53866 28.00391 1506 ft 121 kts 341°
2026-04-21 09:41 68.54675 27.99874 1516 ft 122 kts 338°
2026-04-21 09:42 68.55462 27.98998 1508 ft 122 kts 327°
2026-04-21 09:42 68.56173 27.97749 1509 ft 121 kts 319°
2026-04-21 09:42 68.56807 27.96221 1514 ft 122 kts 313°
2026-04-21 09:42 68.57411 27.94594 1524 ft 122 kts 309°
2026-04-21 09:43 68.58039 27.92976 1484 ft 127 kts 316°
2026-04-21 09:43 68.58787 27.91626 1425 ft 128 kts 324°
2026-04-21 09:43 68.59567 27.90615 1433 ft 122 kts 331°
2026-04-21 09:43 68.60367 27.89855 1436 ft 122 kts 333°
2026-04-21 09:44 68.61159 27.88993 1433 ft 122 kts 331°
2026-04-21 09:44 68.61903 27.88016 1435 ft 115 kts 324°
2026-04-21 09:44 68.62530 27.86839 1415 ft 103 kts 312°
2026-04-21 09:44 68.63042 27.85507 1449 ft 104 kts 309°
2026-04-21 09:45 68.63554 27.84077 1442 ft 104 kts 307°
2026-04-21 09:45 68.64035 27.82651 1435 ft 102 kts 306°
2026-04-21 09:45 68.64544 27.81264 1435 ft 103 kts 310°
2026-04-21 09:45 68.65110 27.80009 1437 ft 106 kts 316°
2026-04-21 09:46 68.65685 27.78728 1435 ft 107 kts 312°
2026-04-21 09:46 68.66229 27.77273 1435 ft 110 kts 308°
2026-04-21 09:46 68.66750 27.75748 1433 ft 110 kts 304°
2026-04-21 09:46 68.67177 27.73989 1435 ft 112 kts 295°
2026-04-21 09:47 68.67493 27.72041 1436 ft 112 kts 288°
2026-04-21 09:47 68.67706 27.69957 1431 ft 114 kts 280°
2026-04-21 09:47 68.67811 27.67830 1427 ft 110 kts 273°
2026-04-21 09:47 68.67799 27.65741 1432 ft 109 kts 265°
2026-04-21 09:48 68.67682 27.63634 1433 ft 114 kts 259°
2026-04-21 09:48 68.67423 27.61558 1434 ft 116 kts 245°
2026-04-21 09:48 68.66976 27.59697 1430 ft 117 kts 234°
2026-04-21 09:48 68.66441 27.58008 1433 ft 116 kts 232°
2026-04-21 09:49 68.65908 27.56363 1432 ft 116 kts 231°
2026-04-21 09:49 68.65378 27.54683 1430 ft 116 kts 233°
2026-04-21 09:49 68.64880 27.52947 1430 ft 115 kts 235°
2026-04-21 09:49 68.64377 27.51227 1415 ft 116 kts 233°
2026-04-21 09:50 68.63832 27.49635 1447 ft 111 kts 228°
2026-04-21 09:50 68.63652 27.49153 1465 ft 103 kts 227°
2026-04-21 09:50 68.62719 27.46500 1313 ft 47 kts 230°
2026-04-21 09:51 68.62512 27.45902 1200 ft 41 kts 231°
2026-04-21 09:51 68.62310 27.45246 1096 ft 49 kts 232°
2026-04-21 09:51 68.62093 27.44596 1063 ft 41 kts 229°
2026-04-21 09:51 68.61920 27.44111 919 ft 37 kts 227°
2026-04-21 09:52 68.61704 27.43451 719 ft 57 kts 226°
2026-04-21 09:52 68.61417 27.42564 539 ft 62 kts 224°
2026-04-21 09:52 68.61235 27.42019 479 ft 14 kts 219°
2026-04-21 09:52 68.61206 27.41934 481 ft 7 kts 218°
2026-04-21 09:53 68.61145 27.41861 474 ft 11 kts 140°
2026-04-21 09:53 68.61094 27.41970 478 ft 10 kts 131°
2026-04-21 09:53 68.61079 27.42086 496 ft 5 kts 75°
2026-04-21 09:53 68.61085 27.42166 482 ft 2 kts 162°
2026-04-21 09:54 68.61089 27.42177 477 ft 0 kts 214°
2026-04-21 09:54 68.61086 27.42167 469 ft 1 kts 207°
2026-04-21 09:54 68.61088 27.42174 466 ft 3 kts 72°
2026-04-21 09:54 68.61088 27.42171 469 ft 0 kts 36°